This is the latest recevied weather packets stored in our database for station/object OK4PZ-5. If no packets are shown the sender has not sent any weather packets the latest 10 day(s).
| Time | Temp. | Humidity | Pressure | Rain* | Wind** | Luminosity | Snow |
|---|---|---|---|---|---|---|---|
| 1788577202 | 17.22° C | 69% | 1019 hPa | 0 mm | - | - | - |
| 1788576302 | 17.78° C | 67% | 1019 hPa | 0 mm | - | - | - |
| 1788575402 | 17.78° C | 67% | 1019 hPa | 0 mm | - | - | - |
| 1788574502 | 17.78° C | 69% | 1019 hPa | 0 mm | - | - | - |
| 1788573603 | 17.78° C | 69% | 1018 hPa | 0 mm | - | - | - |
| 1788572703 | 17.22° C | 71% | 1018 hPa | 0 mm | - | - | - |
| 1788571802 | 17.78° C | 72% | 1018 hPa | 0 mm | - | - | - |
| 1788570902 | 18.33° C | 70% | 1018 hPa | 0 mm | - | - | - |
| 1788570002 | 18.33° C | 72% | 1018 hPa | 0 mm | - | - | - |
| 1788569102 | 20° C | 71% | 1018 hPa | 0 mm | - | - | - |
| 1788568202 | 21.67° C | 64% | 1017 hPa | 0 mm | - | - | - |
| 1788567302 | 21.67° C | 64% | 1016 hPa | 0 mm | - | - | - |
| 1788566402 | 21.11° C | 64% | 1016 hPa | 0 mm | - | - | - |
| 1788565502 | 21.11° C | 65% | 1016 hPa | 0 mm | - | - | - |
| 1788564602 | 21.11° C | 65% | 1016 hPa | 0 mm | - | - | - |
| 1788563702 | 21.11° C | 64% | 1016 hPa | 0 mm | - | - | - |
| 1788562802 | 21.11° C | 64% | 1016 hPa | 0 mm | - | - | - |
| 1788561903 | 18.33° C | 74% | 1016 hPa | 0 mm | - | - | - |
| 1788561002 | 18.89° C | 77% | 1016 hPa | 0 mm | - | - | - |
| 1788560102 | 19.44° C | 70% | 1015 hPa | 0 mm | - | - | - |
| 1788559202 | 18.33° C | 77% | 1015 hPa | 0 mm | - | - | - |
| 1788558301 | 17.78° C | 82% | 1016 hPa | 0 mm | - | - | - |
| 1788557402 | 17.78° C | 81% | 1015 hPa | 0 mm | - | - | - |
| 1788556502 | 17.78° C | 81% | 1015 hPa | 0 mm | - | - | - |
| 1788555602 | 17.78° C | 82% | 1015 hPa | 0 mm | - | - | - |
* Rain latest hour (hover to see other rain measurements)
** Current wind speed in m/s (hover to see current wind gust speed)